Weather in Zerkal'nyy

Russia / Saint-Petersburg and Leningrad Oblast     60°14′35″N   29°08′02″E
temp.,
°C
wind,
m/s
gust,
m/s
humid.,
%
clouds,
%
prec.,
mm/h
press.,
hPa
HPBL,
m
23 april, fri
fri2300:00+5wsw1294100 2.7 1005174
03:00+4ne2295100 3.8 1004138
06:00+3ssw2694100 0.4 1004209
09:00+4ssw478240 0.4 1005573
12:00+5ssw5772100 0.1 10051028
15:00+6s466278 0.2 10061301
18:00+4s3886100 0.9 1006698
21:00+2wsw249599 1.3 1006131
24 april, sat
sat2400:00+3ssw3688100 0.0 1006501
03:00+2sw2588100 0.1 1006350
06:00+1sw359596 0.1 1006359
09:00+2sw347859 0.1 1006744
12:00+4ssw346680 0.1 1007984
15:00+4ssw346066 0.1 10071180
18:00+5s225728 0.0 1007954
21:00+2s11749 0.0 100712
25 april, sun
sun2500:000n118344 0.0 100714
03:000nnw11878 0.0 100618
06:000nw128593 0.0 100655
09:00+4wnw2366100 0.0 1006645
12:00+5w4466100 0.1 10061071
15:00+4w347599 0.1 1006755
18:00+5w4575100 0.3 1006746
21:00+3w3789100 0.4 1006249
26 april, mon
mon2600:00+2nw269697 0.0 1006211
03:00+2wnw3696100 0.0 1006346
06:00+1w3798100 0.3 1005267
09:00+1w4898100 2.3 1005300
12:00+1wsw4799100 2.2 1005263
15:00+1wsw4799100 3.8 1005274
18:00+1sw3699100 0.9 1005249
21:00+1wsw2399100 2.1 1005149
27 april, tue
tue2700:00+2nnw1699100 0.7 1005294
03:00+3n3798100 1.1 1006623
06:00+2n3798100 0.3 1006734
09:00+3n3897100 0.4 1006540
12:00+4n3582100 0.1 1007925
15:00+4nnw2581100 0.2 1008711
18:00+4nnw3582100 0.1 1009559
21:00+3nnw2489100 0.1 100989